ROMMA est une association bénévole à but non lucratif. Votre soutien est indispensable : ADHERER à ROMMA ou FAIRE un DON

Pommerol - (26, Drôme)

Baronnies (780 m)   Longitude: 5° 27' 28.8"   Latitude: 44° 26' 23'' N Station partenaire n°78
 

Détail journalier du     <<     >>

Température Precipitation Humidité Pression Vent Dir Rafale Dir. rafale
Heure (°C) (mm) (%) (hPa) (km/h) (km/h)
01:00 7.807510303NO21NO
02:00 7.507110296O32O
03:00 6.906810293SO26ONO
04:00 7.106810291O16NO
05:00 7.106810281O18O
06:00 7.407010283ONO23ONO
07:00 6.507310292SSE26O
08:00 4.2081102902ESE
09:00 6.30761030016ESE
10:00 7.207210302N16N
11:00 8.406910303O19O
12:00 8.406810305O26O
13:00 8.806710294S24S
14:00 9.006710286ONO32ONO
15:00 8.706810287O27NNO
16:00 8.706410285O26O
17:00 7.706910283O23NO
18:00 6.907110292NO21S
19:00 6.40721029021O
20:00 5.907310292SO23NO
21:00 5.507510305NO16NO
22:00 5.107610306NO37NNO
23:00 4.607510309ONO32NO
minuit 4.307510304O26NNO

Graphique du 04-01-2020

 

Serveur OMMA